Location: ??????
(56.2833°N, 29.5000°E)
Time: 22:01:40
(UTC+00:00)

Daily predictions for brighter satellites

Satellite Brightness Start Highest point End
(mag) Time Altitude Azimuth Time Altitude Azimuth Time Altitude Azimuth
COSMOS 2406 3.9 19:11:25 10° NW 19:17:02 53° WSW 19:22:36 10° S
STARLINK-1144 3.8 19:14:53 10° WSW 19:18:56 55° S 19:23:00 10° E
USA 215 3.3 19:13:25 10° ESE 19:19:59 78° SSW 19:26:34 10° WNW
STARLINK-1227 4.1 19:17:46 10° SSW 19:20:15 22° SSE 19:22:43 10° E
STARLINK-1226 4.1 19:18:36 10° SSW 19:21:06 22° SSE 19:23:36 10° E
STARLINK-1116 4.0 19:17:24 10° W 19:21:22 46° SSW 19:25:21 10° ESE
STARLINK-1215 4.1 19:19:31 10° SSW 19:22:02 22° SSE 19:24:33 10° E
Crew Dragon 1.6 19:20:24 10° WSW 19:22:05 20° S 19:23:51 10° SE
Cosmos 2221 Rocket 3.8 19:19:12 10° S 19:23:37 58° E 19:28:06 10° NNE
STARLINK-1217 4.1 19:21:16 10° SSW 19:23:47 23° SSE 19:26:19 10° E
STARLINK-1103 3.8 19:19:50 10° WSW 19:23:54 55° S 19:27:58 10° E
Okean 1-7 3.6 19:20:25 10° SSW 19:24:40 62° WNW 19:28:55 10° N
STARLINK-1229 4.1 19:22:10 10° SSW 19:24:42 23° SSE 19:27:15 10° E
USA 229 DEB 3.7 19:18:16 10° SW 19:24:51 72° SE 19:31:51 10° NE
USA 229 3.7 19:18:24 10° SW 19:24:58 72° SE 19:31:57 10° NE
Meteor 2-4 Rocket 3.7 19:20:01 10° S 19:25:20 66° E 19:30:39 10° NNE
STARLINK-1270 4.0 19:23:00 10° SSW 19:25:33 23° SSE 19:28:07 10° E
Cosmos 1844 4.0 19:20:02 10° SW 19:25:44 79° NW 19:31:32 10° NE
Cosmos 371 Rocket 4.3 19:22:49 10° SSE 19:26:57 29° ESE 19:31:06 10° NE
STARLINK-1189 4.0 19:24:49 10° SSW 19:27:24 24° SSE 19:29:58 10° E
STARLINK-1188 4.0 19:25:41 10° SSW 19:28:16 24° SSE 19:30:51 10° E
SPOT 1/Viking Rocket 3.9 19:23:30 10° S 19:28:38 64° WSW 19:33:47 10° NNW
STARLINK-1101 3.8 19:24:48 10° WSW 19:28:52 55° S 19:32:56 10° ESE
STARLINK-1235 3.8 19:26:13 10° SW 19:28:53 26° SSE 19:31:33 10° E
STARLINK-1187 3.9 19:26:43 10° SW 19:29:19 25° SSE 19:31:57 10° E
Resurs 01 Rocket 3.7 19:26:02 10° SSW 19:29:42 25° W 19:33:23 10° NW
Sich 1 Rocket 4.5 19:25:43 10° NNW 19:30:10 50° W 19:34:36 10° S
STARLINK-1191 4.0 19:28:08 10° SSW 19:30:43 24° SSE 19:33:18 10° E
STARLINK-1094 4.1 19:27:20 10° W 19:31:17 43° SSW 19:35:14 10° SE
STARLINK-1221 4.0 19:29:00 10° SSW 19:31:35 24° SSE 19:34:11 10° E
Cosmos 1674 Rocket 4.4 19:28:23 10° SSE 19:32:20 35° E 19:36:21 10° NNE
STARLINK-1222 3.9 19:29:52 10° SSW 19:32:28 24° SSE 19:35:04 10° E
NOSS 3-1 (C) 3.4 19:27:06 10° SW 19:32:50 80° SE 19:39:41 10° NE
STARLINK-1214 3.9 19:30:46 10° SSW 19:33:23 25° SSE 19:36:00 10° E
STARLINK-1102 3.8 19:29:47 10° WSW 19:33:50 55° S 19:37:54 10° ESE
NOSS 3-1 (A) 3.5 19:28:18 10° SSW 19:33:53 61° SE 19:40:31 10° NE
OPS 8737 4.5 19:31:07 10° SSW 19:34:17 42° SE 19:37:03 10° ENE
ATLAS 3B R/B 3.8 19:29:03 10° WNW 19:35:27 46° N 19:41:59 10° E
Abrixas rocket 3.6 19:33:49 10° SW 19:35:49 17° S 19:37:49 10° SE
STARLINK-1117 4.2 19:32:19 10° W 19:36:15 42° SSW 19:40:10 10° SE
Cosmos 2279 Rocket 4.2 19:30:20 10° NNW 19:36:38 81° W 19:42:52 10° S
STARLINK-1111 3.8 19:34:44 10° W 19:38:48 55° S 19:42:51 10° ESE
Cosmos 1741 Rocket 4.1 19:33:31 10° NNW 19:38:48 84° ENE 19:44:02 10° SSE
Meteor 1-4 Rocket 2.7 19:35:43 10° SSW 19:39:09 70° WNW 19:42:38 10° N
SPOT 5 3.2 19:34:04 10° SSE 19:39:13 77° WSW 19:44:35 10° NNW
CENTAUR R/B 3.7 19:32:17 10° WNW 19:39:31 59° NNE 19:47:51 10° E
Cosmos 1378 Rocket 4.5 19:35:55 10° SSE 19:39:52 33° E 19:43:49 10° NNE
Cosmos 1624 Rocket 4.1 19:34:31 10° SSW 19:39:52 83° ESE 19:45:15 10° NNE
STARLINK-1078 4.2 19:37:17 10° W 19:41:12 41° SSW 19:45:06 10° SE
STARLINK-1073 3.8 19:39:42 10° W 19:43:46 55° S 19:47:50 10° ESE
NOSS 2-3 (C) 3.9 19:40:20 10° SSW 19:44:43 58° SE 19:50:06 10° NE
STARLINK-1108 4.2 19:42:16 10° W 19:46:09 39° SSW 19:50:02 10° SE
Okean 2 Rocket 3.8 19:43:08 10° NNW 19:47:29 52° W 19:51:46 10° S
STARLINK-1121 3.8 19:44:39 10° W 19:48:43 55° S 19:52:46 10° ESE
BREEZE M DEB (TANK) 4.1 19:49:04 10° SSW 19:50:54 13° S 19:51:50 11° SSE
STARLINK-1071 4.3 19:47:15 10° W 19:51:06 38° SSW 19:54:58 10° SE
Cosmos 1850 Rocket 4.2 19:47:34 10° NNW 19:52:56 78° WSW 19:58:13 10° SSE
STARLINK-1106 3.8 19:49:37 10° W 19:53:41 54° S 19:57:44 10° ESE
Cosmos 1371 Rocket 4.3 19:48:31 10° SW 19:53:46 75° WNW 19:59:01 10° NNE
STARLINK-1245 4.5 19:50:20 10° SSW 19:53:54 28° SSE 19:57:30 10° E
STARLINK-1110 4.3 19:51:27 10° W 19:55:17 37° SSW 19:59:04 10° SE
Cosmos 2082 Rocket 2.5 19:51:14 10° NW 19:56:54 61° WSW 20:02:27 10° SSE
STARLINK-1112 3.8 19:54:36 10° W 19:58:39 54° S 20:02:42 10° ESE
STARLINK-1233 4.4 19:55:13 10° SW 19:58:50 30° SSE 20:02:29 10° E
Cosmos 2151 Rocket 4.2 19:56:03 10° NNW 20:00:28 55° W 20:04:54 10° S
STARLINK-1124 4.4 19:57:13 10° W 20:01:01 35° SSW 20:04:36 11° SE
ERBS 3.7 20:00:53 10° S 20:03:15 18° SE 20:05:37 10° E
Aureole 2 4.4 19:59:57 10° NNW 20:03:36 79° ENE 20:06:23 13° SSE
STARLINK-1128 3.8 19:59:34 10° W 20:03:38 53° S 20:07:41 10° ESE
STARLINK-1204 4.3 20:00:08 10° SW 20:03:48 31° SSE 20:07:29 10° E
SeaSat 1 3.3 19:59:52 10° NE 20:04:15 31° ESE 20:08:33 10° S
Okean 1 Rocket 3.1 20:00:52 10° NNW 20:05:24 89° ENE 20:09:39 11° S
Cosmos 1833 Rocket 3.7 20:00:26 10° NW 20:05:34 37° WSW 20:10:40 10° S
NOSS 3-2 (A) 4.1 19:58:35 10° NW 20:05:39 79° NNE 20:13:48 10° ESE
STARLINK-1122 4.4 20:02:12 10° W 20:05:58 34° SSW 20:09:23 12° SE
ERS-1 Rocket 3.9 20:01:32 10° S 20:06:19 43° W 20:11:08 10° NNW
Meteor 1-15 Rocket 4.5 20:01:45 10° NNW 20:07:41 80° WSW 20:13:34 10° S
STARLINK-1113 3.8 20:04:32 10° W 20:08:35 52° S 20:12:37 10° ESE
STARLINK-1238 4.3 20:05:01 10° SW 20:08:43 32° SSE 20:12:26 10° E
STARLINK-1126 4.5 20:07:08 10° W 20:10:52 33° SSW 20:14:07 13° SE
USA 238 DEB 3.9 20:05:53 10° NW 20:13:00 82° NE 20:20:25 10° ESE
USA 238 4.0 20:05:59 10° NW 20:13:06 81° NE 20:20:31 10° ESE
Cosmos 1092 Rocket 4.5 20:07:42 11° SSE 20:13:16 46° E 20:19:05 10° NNE
STARLINK-1119 3.8 20:09:30 10° W 20:13:33 51° S 20:17:35 10° ESE
STARLINK-1201 4.2 20:09:57 10° SW 20:13:42 34° SSE 20:17:27 10° E
Cosmos 1805 3.3 20:10:51 10° N 20:14:47 71° ENE 20:18:10 14° SSE
Cosmos 304 Rocket 4.5 20:11:44 11° S 20:15:51 36° ESE 20:20:13 10° NE
EO 1 Del DPAF 4.3 20:12:34 10° NE 20:15:56 29° E 20:18:36 14° SSE
Cosmos 1455 Rocket 3.8 20:14:05 10° N 20:18:17 43° ENE 20:22:00 12° SE
STARLINK-1114 3.8 20:14:30 10° W 20:18:32 50° S 20:22:33 10° ESE
STARLINK-1206 4.2 20:14:51 10° SW 20:18:38 35° SSE 20:22:25 10° E
Cosmos 2369 Rocket 4.1 20:15:54 10° SE 20:18:42 14° E 20:21:31 10° ENE
Cosmos 332 Rocket 4.0 20:14:40 10° S 20:19:27 54° ESE 20:24:15 10° NE
SL-4 R/B 3.0 20:16:48 10° WNW 20:19:28 23° WSW 20:21:42 12° S
Okean 2 4.4 20:17:46 13° SSE 20:20:53 32° E 20:24:35 10° NNE
Aureole 2 Rocket 3.5 20:19:11 15° SSE 20:20:55 23° ESE 20:23:26 10° NE
OPS 6432 4.2 20:18:38 10° NW 20:21:36 83° NE 20:24:56 11° SE
Cosmos 1066 Rocket 4.2 20:16:37 10° S 20:21:59 68° E 20:27:20 10° NNE
Cosmos 2056 Rocket 4.2 20:17:30 10° SW 20:22:31 55° NW 20:27:35 10° NNE
STARLINK-1130 (DARKSAT) 3.8 20:19:27 10° W 20:23:28 50° S 20:27:29 10° ESE
STARLINK-1205 4.1 20:19:46 10° SW 20:23:35 36° SSE 20:27:25 10° E
ISS -2.2 20:24:19 10° WSW 20:26:54 20° SSW 20:28:26 15° S
STARLINK-1084 3.9 20:24:25 10° W 20:28:26 48° SSW 20:32:26 10° ESE
STARLINK-1218 4.1 20:24:41 10° SW 20:28:32 38° SSE 20:32:23 10° E
Cosmos 1943 Rocket 3.6 20:26:06 12° SE 20:29:34 21° ESE 20:33:40 10° NE
Cosmos 1378 3.4 20:27:53 14° S 20:30:53 53° E 20:34:33 10° NNE
Cosmos 1842 4.4 20:30:09 14° SSE 20:32:51 31° E 20:36:20 10° NNE
STARLINK-1098 3.9 20:29:25 10° W 20:33:24 47° SSW 20:37:24 10° ESE
STARLINK-1254 4.0 20:29:37 10° SW 20:33:30 39° SSE 20:37:22 10° E
STARLINK-67 2.7 20:31:57 10° WSW 20:33:42 27° S 20:33:56 26° S
SL-8 R/B 4.4 20:30:11 10° WSW 20:34:28 32° S 20:38:46 10° ESE
Cosmos 2278 Rocket 2.4 20:29:57 10° SW 20:35:38 79° NW 20:41:23 10° NE
STARLINK-1123 3.9 20:34:23 10° W 20:38:21 46° SSW 20:42:20 10° ESE
STARLINK-1231 4.0 20:34:34 10° SW 20:38:28 40° SSE 20:42:22 10° E
Cosmos 1437 Rocket 3.2 20:37:35 10° SSW 20:41:19 59° WNW 20:45:07 10° N
Lacrosse 5 3.1 20:37:25 10° W 20:41:36 26° SW 20:44:51 14° S
Thor Agena Rocket 3.8 20:37:37 10° NNE 20:42:53 59° ESE 20:47:30 13° S
Terra 3.2 20:39:04 10° SSW 20:43:19 32° W 20:47:36 10° NNW
STARLINK-1097 3.9 20:39:21 10° W 20:43:19 45° SSW 20:47:16 10° ESE
STARLINK-1232 4.0 20:39:30 10° SW 20:43:25 42° SSE 20:47:20 10° E
NOSS 2-3 (E) 4.2 20:39:54 10° WSW 20:44:31 74° NNW 20:50:20 10° NE
ALOS 2 3.1 20:41:59 14° SE 20:45:39 54° ENE 20:49:58 10° N
STARLINK-1099 4.0 20:44:18 10° W 20:48:15 44° SSW 20:52:11 10° SE
Spot 4 3.9 20:44:17 15° SSE 20:48:21 83° WSW 20:53:15 10° NNW
STARLINK-1208 3.9 20:44:26 10° SW 20:48:21 43° SSE 20:52:18 10° E
STARLINK-1228 3.2 20:45:36 10° WSW 20:48:48 47° S 20:52:02 10° ESE
STARLINK-1234 3.1 20:49:23 10° WSW 20:52:24 45° S 20:55:24 10° ESE
STARLINK-1104 4.0 20:49:17 10° W 20:53:13 42° SSW 20:57:01 11° SE
STARLINK-1271 3.9 20:49:23 10° SW 20:53:20 44° SSE 20:57:17 10° E
Cosmos 1452 Rocket 3.8 20:48:07 10° SW 20:53:24 74° WNW 20:58:44 10° NNE
GEOS 3 Rocket 4.3 20:48:19 10° ESE 20:53:27 57° NNE 20:58:41 10° NW
STARLINK-1212 3.1 20:50:48 10° WSW 20:53:46 43° S 20:56:45 10° E
Cosmos 1544 Rocket 3.7 20:49:49 10° N 20:54:09 66° ENE 20:57:29 16° SSE
STARLINK-1209 3.1 20:51:07 10° WSW 20:54:09 45° S 20:57:12 10° ESE
STARLINK-1105 3.1 20:51:17 10° WSW 20:54:14 43° S 20:57:13 10° E
STARLINK-1247 3.1 20:52:11 10° WSW 20:55:10 43° S 20:58:09 10° E
Cosmos 1553 Rocket 4.2 20:49:10 10° N 20:55:33 69° ENE 21:00:53 15° SSE
STARLINK-1227 3.1 20:52:39 10° WSW 20:55:37 43° S 20:58:35 10° E
STARLINK-1226 3.1 20:53:29 10° WSW 20:56:29 43° S 20:59:28 10° E
STARLINK-1215 3.1 20:54:25 10° WSW 20:57:25 43° S 21:00:25 10° E
STARLINK-1144 4.1 20:54:16 10° W 20:58:11 41° SSW 21:01:48 12° SE
STARLINK-1154 3.9 20:54:20 10° WSW 20:58:18 45° SSE 21:02:16 10° E
Cosmos 1726 3.6 20:55:40 10° N 20:58:55 28° ENE 21:01:55 11° SE
STARLINK-1217 3.1 20:56:11 10° WSW 20:59:11 44° S 21:02:10 10° E
Cosmos 1766 3.9 20:56:09 10° NNW 20:59:59 48° W 21:03:05 15° SSW
STARLINK-1229 3.1 20:57:06 10° WSW 21:00:06 44° S 21:03:06 10° E
STARLINK-1270 3.1 20:57:57 10° WSW 21:00:57 44° S 21:03:57 10° E
Aureole 3 Rocket 3.8 20:57:04 10° N 21:01:50 80° ENE 21:07:23 15° SSE
STARLINK-1189 3.1 20:59:47 10° WSW 21:02:47 44° S 21:05:48 10° ESE
SL-4 R/B 0.4 21:01:57 28° SSE 21:02:57 85° WSW 21:05:11 10° NNW
STARLINK-1103 4.1 20:59:15 10° W 21:03:08 40° SSW 21:06:35 13° SE
STARLINK-1197 3.8 20:59:16 10° WSW 21:03:15 47° SSE 21:07:14 10° E
SL-27 R/B 2.5 20:59:49 10° NNW 21:03:28 79° ENE 21:06:05 18° SSE
USA 215 3.8 20:58:28 14° SSE 21:03:37 39° SW 21:09:43 10° WNW
STARLINK-1188 3.1 21:00:40 10° WSW 21:03:40 44° S 21:06:40 10° ESE
STARLINK-1235 3.1 21:01:20 10° WSW 21:04:19 45° S 21:07:18 10° ESE
NOSS 2-3 (D) 4.5 20:59:54 10° WSW 21:04:32 65° NNW 21:10:23 10° NE
STARLINK-1187 3.1 21:01:46 10° WSW 21:04:45 45° S 21:07:44 10° ESE
Cosmos 1953 3.4 21:01:07 10° N 21:04:54 37° ENE 21:08:04 13° SE
STARLINK-1191 3.1 21:03:08 10° WSW 21:06:07 44° S 21:09:06 10° ESE
Cosmos 1340 Rocket 4.1 21:02:50 10° N 21:06:30 33° ENE 21:09:57 11° SE
Cosmos 2026 Rocket 4.1 21:01:22 14° S 21:06:48 76° E 21:13:10 10° NNE
STARLINK-1221 3.1 21:04:01 10° WSW 21:07:00 44° S 21:09:59 10° ESE
Cosmos 371 Rocket 3.9 21:02:18 10° SW 21:07:06 58° NW 21:11:57 10° NNE
STARLINK-1222 3.1 21:04:54 10° WSW 21:07:53 44° S 21:10:52 10° ESE
STARLINK-1101 4.1 21:04:13 10° W 21:08:05 39° SSW 21:11:21 13° SE
STARLINK-1198 3.8 21:04:11 10° WSW 21:08:11 48° SSE 21:12:11 10° E
STARLINK-1214 3.1 21:05:49 10° WSW 21:08:48 44° S 21:11:47 10° ESE
Cosmos 1461 3.4 21:06:45 15° SSW 21:09:55 42° SE 21:14:06 10° NE
NOSS 3-2 (C) 4.0 21:03:21 10° NW 21:10:33 83° SW 21:18:48 10° SE
Abrixas rocket 3.9 21:08:41 10° SW 21:09:45 15° SSW 21:09:45 15° SSW
NOSS 2-2 (D) 4.3 21:09:53 19° SSE 21:11:40 28° SE 21:15:14 10° ENE
STARLINK-1102 4.2 21:09:13 10° W 21:13:03 37° SSW 21:16:09 14° SE
STARLINK-1199 3.8 21:09:11 10° WSW 21:13:11 49° SSE 21:17:12 10° E
Cosmos 1758 3.4 21:09:22 10° N 21:13:25 75° ENE 21:16:19 18° SSE
Cosmos 1271 Rocket 3.8 21:11:25 17° SSE 21:13:46 32° E 21:17:16 10° NNE
STARLINK-1269 4.4 21:12:13 10° SSW 21:15:49 29° SSE 21:19:27 10° E
USA 229 4.5 21:09:38 10° W 21:16:15 57° NNW 21:23:19 10° ENE
COSMOS 2487 4.1 21:13:41 10° N 21:16:46 28° NE 21:19:50 10° ESE
STARLINK-1111 4.2 21:14:11 10° W 21:18:00 36° SSW 21:20:55 15° SE
STARLINK-1210 3.8 21:14:06 10° WSW 21:18:07 50° S 21:22:09 10° E
Cosmos 2297 Rocket 4.4 21:14:15 10° NNW 21:18:55 25° NNE 21:23:34 10° E
Cosmos 1733 4.2 21:16:06 10° NNW 21:19:42 38° W 21:22:28 15° SSW
STARLINK-1200 4.4 21:17:08 10° SW 21:20:47 30° SSE 21:24:27 10° E
Cosmos 1707 3.6 21:18:47 18° SSE 21:21:14 37° E 21:24:52 10° NNE
STARLINK-1073 4.3 21:19:10 10° W 21:22:58 35° SSW 21:25:43 16° SE
STARLINK-1219 3.7 21:19:04 10° WSW 21:23:05 51° S 21:27:07 10° E
ATLAS CENTAUR R/B 0.6 21:22:43 10° WNW 21:24:31 66° N 21:26:57 10° E
YAOGAN 11 4.4 21:21:15 15° SE 21:24:46 60° ENE 21:29:04 10° N
NOSS 3-1 (A) 4.3 21:19:00 10° WSW 21:24:56 59° NNW 21:32:03 10° ENE
STARLINK-1192 4.3 21:22:03 10° SW 21:25:44 32° SSE 21:29:27 10° E
ATLAS 3B R/B 2.9 21:20:16 10° NW 21:27:01 73° NNE 21:33:56 10° ESE
Cosmos 1975 Rocket 3.2 21:23:46 15° SSW 21:27:30 73° WNW 21:31:57 10° N
STARLINK-1121 4.3 21:24:08 10° W 21:27:53 33° SSW 21:30:28 17° SSE
STARLINK-1211 3.7 21:24:00 10° WSW 21:28:02 52° S 21:32:05 10° E
Meteor 2-10 4.1 21:23:45 10° NNW 21:28:54 73° ENE 21:32:53 16° SSE
Aureole 3 4.1 21:26:20 10° N 21:30:16 41° ENE 21:32:49 15° SE
NOSS 2-2 (E) 3.6 21:27:52 17° SSW 21:30:27 46° SE 21:34:40 10° ENE
STARLINK-1244 4.3 21:26:56 10° SW 21:30:40 33° SSE 21:34:25 10° E
CENTAUR R/B 3.1 21:23:06 10° NW 21:30:50 78° SW 21:39:30 10° SE
TSX-5 4.3 21:25:36 10° SW 21:31:06 87° NW 21:35:20 10° NE
Cosmos 2297 3.7 21:25:56 10° SSW 21:31:38 89° WNW 21:37:25 10° NE
STARLINK-1106 4.4 21:29:08 10° W 21:32:50 32° SSW 21:35:15 18° SSE
STARLINK-1245 3.7 21:28:59 10° WSW 21:33:01 52° S 21:37:04 10° E
SL-16 R/B 4.4 21:30:27 10° E 21:35:21 26° NE 21:40:16 10° N
STARLINK-1138 4.2 21:31:51 10° SW 21:35:37 34° SSE 21:39:24 10° E
STARLINK-1112 4.4 21:34:08 10° W 21:37:48 31° SSW 21:40:03 18° SSE
STARLINK-1203 4.2 21:33:57 10° SW 21:37:48 36° SSE 21:41:41 10° E
STARLINK-1233 3.7 21:33:56 10° WSW 21:37:58 53° S 21:42:01 10° E
ERBS 2.2 21:35:48 10° WSW 21:39:05 63° SSE 21:42:24 10° ENE
Cosmos 2082 Rocket 4.3 21:37:03 10° WNW 21:39:53 14° W 21:42:42 10° SW
Cosmos 1242 Rocket 2.5 21:37:35 20° S 21:39:59 77° ESE 21:43:41 10° NNE
Cosmos 1503 Rocket 4.0 21:34:46 10° NNW 21:40:05 90° NNE 21:44:33 15° SSE
STARLINK-1143 4.2 21:36:46 10° SW 21:40:34 36° SSE 21:44:23 10° E
SeaSat 1 2.8 21:37:11 10° NNE 21:42:06 65° NW 21:46:59 10° SW
Cosmos 1470 3.2 21:38:56 10° NNW 21:42:44 51° W 21:45:16 19° SSW
STARLINK-1204 3.7 21:38:54 10° WSW 21:42:57 54° S 21:47:00 10° E
NOSS 8 (E) 4.1 21:40:28 10° SW 21:43:32 90° NNE 21:46:45 10° NE
STARLINK-1241 4.1 21:41:41 10° SW 21:45:31 37° SSE 21:49:22 10° E
Cosmos 1674 4.4 21:43:44 13° SE 21:46:09 22° E 21:49:08 10° NE
STARLINK-1238 3.7 21:43:50 10° WSW 21:47:53 54° S 21:51:56 10° E
Cosmos 1110 Rocket 4.4 21:43:55 10° SW 21:49:05 64° WNW 21:54:16 10° NNE
Cosmos 1867 3.6 21:43:59 10° NW 21:49:30 87° SW 21:54:58 10° SE
EO 1 Del DPAF 4.5 21:46:30 10° N 21:50:00 37° WNW 21:53:30 10° SW
STARLINK-1239 4.1 21:46:36 10° SW 21:50:28 38° SSE 21:54:20 10° E
STARLINK-1201 3.7 21:48:49 10° WSW 21:52:52 55° S 21:56:56 10° E
NOSS 2-2 (C) 3.4 21:50:30 17° SSW 21:53:10 56° SE 21:57:26 10° ENE
ATLAS 2AS CENTAUR R/B 3.9 21:48:30 16° S 21:53:57 34° ESE 22:00:50 10° ENE
Cosmos 968 Rocket 3.7 21:49:13 10° NW 21:54:19 58° WSW 21:58:02 18° S
Aureole 2 Rocket 3.6 21:51:33 10° WSW 21:54:29 35° NW 21:57:19 10° NNE
Cosmos 2227 Rocket 4.1 21:49:52 10° NNW 21:54:53 31° NNE 21:59:53 10° E
Cosmos 1354 Rocket 4.0 21:49:37 10° NNW 21:54:56 80° WSW 21:59:16 16° SSE
STARLINK-1240 4.0 21:51:33 10° SW 21:55:26 40° SSE 21:59:20 10° E
Cosmos 1455 Rocket 4.4 21:52:13 10° NNW 21:55:59 29° W 21:59:07 13° SW
NOSS 3-2 (A) 4.5 21:49:32 10° NW 21:56:26 45° SW 22:02:51 15° S
STARLINK-1206 3.7 21:53:46 10° WSW 21:57:50 55° S 22:01:54 10° E
Helios 1A 3.3 21:57:21 19° S 22:00:09 55° WSW 22:04:17 10° NNW
STARLINK-1216 4.0 21:56:28 10° SW 22:00:23 41° SSE 22:04:18 10° E
Cosmos 2369 Rocket 2.3 21:57:13 16° SSW 22:01:39 62° ESE 22:07:14 10° NE
Cosmos 1908 3.6 21:58:16 10° N 22:02:04 58° ENE 22:04:55 17° SSE
Cosmos 2315 Rocket 4.1 21:55:50 10° N 22:02:06 77° ENE 22:07:22 15° SSE
CZ-2D R/B 4.5 22:00:26 10° ENE 22:02:17 12° E 22:04:06 10° E
STARLINK-1205 3.7 21:58:44 10° WSW 22:02:48 55° S 22:06:52 10° ESE
USA 238 DEB 4.4 21:57:04 10° WNW 22:03:37 40° WSW 22:08:58 16° S
USA 238 4.4 21:57:10 10° WNW 22:03:43 40° WSW 22:09:06 16° S
STARLINK-1237 4.0 22:01:25 10° SW 22:05:21 42° SSE 22:09:17 10° E
Meteor 1-21 4.5 22:01:13 14° SSW 22:06:08 67° WNW 22:11:45 10° NNE
STARLINK-1218 3.7 22:03:41 10° WSW 22:07:45 55° S 22:11:49 10° ESE
Cosmos 1726 Rocket 4.0 22:04:44 10° N 22:09:01 56° ENE 22:12:35 14° SSE
STARLINK-1202 3.9 22:06:22 10° SW 22:10:19 44° SSE 22:14:17 10° E
Cosmos 1025 Rocket 3.1 22:08:42 18° SSW 22:11:51 73° WNW 22:16:09 10° N
Cosmos 1943 Rocket 2.2 22:07:35 13° SSW 22:12:37 89° SE 22:18:16 10° NE
STARLINK-1254 3.7 22:08:40 10° WSW 22:12:44 55° S 22:16:47 10° ESE
Resurs 1-4 Rocket 4.3 22:09:52 10° NE 22:12:45 15° E 22:15:36 10° ESE
Helios 1B rocket 3.2 22:09:48 10° NNE 22:13:45 42° E 22:16:32 17° SSE
Meteor 2-15 4.5 22:09:11 10° NNW 22:15:21 77° W 22:20:17 16° S
Cosmos 1302 Rocket 4.2 22:12:13 12° SW 22:17:06 74° WNW 22:22:26 10° NNE
STARLINK-1231 3.7 22:13:39 10° W 22:17:43 55° S 22:21:46 10° ESE
STARLINK-1246 3.9 22:16:15 10° WSW 22:20:13 46° SSE 22:24:12 10° E
Cosmos 2278 Rocket 4.2 22:15:42 10° W 22:20:35 28° NNW 22:25:30 10° NNE
ALOS 2 4.1 22:19:22 14° SW 22:22:17 25° W 22:25:57 10° NW
KORONAS-FOTON 4.4 22:20:08 18° SSE 22:22:39 46° E 22:26:21 10° NNE
STARLINK-1232 3.7 22:18:37 10° W 22:22:40 55° S 22:26:44 10° ESE
ATLAS 5 CENTAUR R/B 1.6 22:23:07 23° S 22:24:10 33° SE 22:26:06 10° ENE
STARLINK-1228 3.5 22:22:00 10° W 22:25:06 36° SSW 22:28:12 10° SE
STARLINK-1224 3.8 22:21:12 10° WSW 22:25:11 47° SSE 22:29:11 10° E
Landsat 4 3.7 22:21:49 10° NNE 22:25:33 79° WNW 22:28:08 19° SSW
Cosmos 1536 Rocket 3.9 22:23:49 17° SSW 22:27:06 60° WNW 22:31:26 10° N
STARLINK-1208 3.7 22:23:34 10° W 22:27:37 54° S 22:31:41 10° ESE
Cosmos 1655 Rocket 4.2 22:22:34 15° SSW 22:27:48 69° WNW 22:34:05 10° N
STARLINK-1234 3.5 22:25:01 10° W 22:27:54 34° SSW 22:30:46 10° SE
Cosmos 292 Rocket 3.8 22:25:11 16° SSW 22:29:07 87° WNW 22:34:01 10° NNE
STARLINK-1212 3.3 22:26:23 10° W 22:29:18 37° SSW 22:32:12 10° SE
STARLINK-1105 3.3 22:26:52 10° W 22:29:45 37° SSW 22:32:39 10° SE
STARLINK-1209 3.5 22:26:55 10° W 22:29:48 33° SSW 22:32:42 10° SE
STARLINK-1225 3.8 22:26:09 10° WSW 22:30:10 48° SSE 22:34:10 10° E
STARLINK-1247 3.3 22:27:45 10° W 22:30:41 37° SSW 22:33:36 10° SE
STARLINK-1227 3.3 22:28:13 10° W 22:31:08 36° SSW 22:34:01 10° SE
GEOS 3 Rocket 3.8 22:26:34 11° SSE 22:31:33 55° SW 22:36:47 10° NW
STARLINK-1226 3.4 22:29:05 10° W 22:31:59 36° SSW 22:34:54 10° SE
Cosmos 2058 Rocket 3.4 22:28:11 10° N 22:32:35 63° ENE 22:36:30 13° SSE
STARLINK-1271 3.7 22:28:33 10° W 22:32:36 54° S 22:36:40 10° ESE
COSMOS 2455 3.8 22:28:32 15° S 22:32:42 34° ESE 22:38:04 10° NE
STARLINK-1215 3.4 22:30:01 10° W 22:32:56 36° SSW 22:35:51 10° SE
Lacrosse 4 Rocket 4.0 22:29:26 10° NNW 22:33:09 25° NNE 22:36:47 10° E
Cosmos 1726 3.1 22:30:48 10° NNW 22:34:11 34° W 22:36:25 18° SSW
BREEZE-M DEB (TANK) 3.1 22:28:56 10° WSW 22:34:38 32° S 22:37:07 10° ESE
STARLINK-1217 3.4 22:31:47 10° W 22:34:41 36° SSW 22:37:35 10° SE
Cosmos 2263 4.2 22:30:29 16° SSW 22:35:05 75° ESE 22:40:43 10° NE
STARLINK-1230 3.8 22:31:06 10° WSW 22:35:06 49° SSE 22:39:08 10° E
Cosmos 2228 3.0 22:31:18 10° NNW 22:35:35 74° W 22:38:43 18° S
STARLINK-1229 3.4 22:32:42 10° W 22:35:37 36° SSW 22:38:31 10° SE
SJ 16-02 3.4 22:32:35 10° NNW 22:36:27 28° NE 22:40:19 10° ESE
STARLINK-1270 3.4 22:33:33 10° W 22:36:28 36° SSW 22:39:22 10° SE
STARLINK-1154 3.7 22:33:31 10° W 22:37:35 53° S 22:41:37 10° ESE
Meteor 1-29 3.7 22:34:24 10° NNE 22:37:41 43° E 22:39:53 18° SSE
STARLINK-1189 3.4 22:35:24 10° W 22:38:18 35° SSW 22:41:12 10° SE
STARLINK-1188 3.4 22:36:16 10° W 22:39:10 35° SSW 22:42:04 10° SE
STARLINK-1235 3.5 22:36:59 10° W 22:39:48 32° SSW 22:42:36 10° SE
STARLINK-1243 3.8 22:36:03 10° WSW 22:40:04 50° S 22:44:06 10° E
STARLINK-1187 3.5 22:37:24 10° W 22:40:14 33° SSW 22:43:04 10° SE
IRAS Rocket 4.3 22:35:38 12° SSE 22:40:56 89° ENE 22:46:32 10° NNW
Cosmos 1953 3.6 22:37:42 10° NNW 22:41:13 29° W 22:43:45 15° SW
STARLINK-1191 3.4 22:38:46 10° W 22:41:38 34° SSW 22:44:29 10° SE
STARLINK-1221 3.4 22:39:38 10° W 22:42:30 34° SSW 22:45:21 10° SE
STARLINK-1197 3.7 22:38:29 10° W 22:42:32 53° S 22:46:35 10° ESE
Cosmos 1340 Rocket 3.8 22:39:19 10° NNW 22:42:59 34° W 22:45:33 17° SSW
STARLINK-1222 3.5 22:40:31 10° W 22:43:23 34° SSW 22:46:14 10° SE
STARLINK-1214 3.5 22:41:26 10° W 22:44:18 33° SSW 22:47:09 10° SE
STARLINK-1236 3.7 22:41:00 10° WSW 22:45:02 51° S 22:49:04 10° E
SL-14 R/B 4.4 22:43:13 13° SSE 22:46:12 35° E 22:49:45 10° NNE
Cosmos 1300 3.1 22:42:56 10° N 22:46:45 61° ENE 22:50:08 13° SSE
STARLINK-1198 3.7 22:43:26 10° W 22:47:28 52° S 22:51:30 10° ESE
Okean 1-7 Rocket 4.3 22:44:37 14° SSE 22:48:10 47° E 22:52:31 10° NNE
Cosmos 2219 3.7 22:42:34 10° NNW 22:48:15 61° NE 22:53:51 10° SE
Cosmos 1461 3.8 22:44:50 10° WSW 22:49:01 51° NNW 22:53:25 10° NE
Cosmos 1992 Rocket 4.0 22:45:08 15° SSW 22:49:26 88° WNW 22:54:42 10° NNE
Cosmos 1271 Rocket 4.1 22:46:32 12° SW 22:49:46 32° WNW 22:53:19 10° N
COSMOS 2487 3.2 22:48:41 10° NW 22:51:54 35° WSW 22:53:49 19° SSW
STARLINK-1199 3.7 22:48:26 10° W 22:52:28 51° S 22:56:30 10° ESE
Nadezhda 1 Rocket 4.4 22:48:11 10° N 22:54:16 63° ENE 23:00:26 10° SSE
STARLINK-1269 3.7 22:50:54 10° WSW 22:54:56 53° S 22:59:00 10° E
Cosmos 1707 4.2 22:53:56 11° SW 22:57:12 29° WNW 23:00:39 10° N
Cosmos 1656 Rocket 3.7 22:52:30 15° SSW 22:57:14 79° ESE 23:02:50 10° NE
STARLINK-1210 3.7 22:53:23 10° W 22:57:25 50° S 23:01:26 10° ESE
In-Cosmos 22 4.3 22:54:02 15° SSW 22:58:27 63° WNW 23:03:44 10° N
Cosmos 1606 Rocket 4.0 22:54:27 10° NNW 22:58:37 46° W 23:01:42 17° SSW
STARLINK-1200 3.7 22:55:53 10° WSW 22:59:55 53° S 23:03:59 10° E
NOSS 2-2 (D) 3.9 22:58:09 10° WSW 23:01:54 61° NNW 23:06:32 10° NE
CZ-4 R/B 4.0 22:57:22 10° NNE 23:02:16 75° WNW 23:06:12 15° SSW
STARLINK-1219 3.8 22:58:21 10° W 23:02:22 49° SSW 23:06:23 10° ESE
Cosmos 1626 2.7 22:59:58 15° S 23:02:49 51° E 23:06:27 10° NNE
Cosmos 2297 Rocket 2.7 22:58:23 10° NNW 23:04:02 64° NE 23:09:40 10° SE
STARLINK-1192 3.7 23:00:51 10° WSW 23:04:53 54° S 23:08:57 10° E
Cosmos 2292 Rocket 4.2 23:02:08 14° SW 23:05:31 38° WNW 23:08:49 10° N
STARLINK-1211 3.8 23:03:19 10° W 23:07:19 48° SSW 23:11:19 10° ESE
APEX 4.4 23:02:48 11° SW 23:09:00 81° NW 23:14:18 10° NE
STARLINK-1244 3.7 23:05:47 10° WSW 23:09:50 54° S 23:13:54 10° E
MOZ.5/SAFIR/RUBIN 5/SL-8 3.8 23:05:45 10° SSE 23:10:23 81° ENE 23:15:04 10° NNW
UNK 4.1 23:06:25 10° SSE 23:10:59 66° ENE 23:15:34 10° NNW
Cosmos 1812 Rocket 4.4 23:07:29 10° N 23:11:53 50° ENE 23:16:14 10° SSE
SL-19 R/B 4.4 23:06:44 10° NNE 23:12:04 67° ESE 23:16:57 14° S
STARLINK-1245 3.8 23:08:18 10° W 23:12:18 47° SSW 23:16:17 10° ESE
PSLV R/B 3.9 23:07:41 10° NNE 23:12:19 66° WNW 23:16:05 15° SSW
Timation 2 Rocket 4.1 23:06:16 10° NW 23:12:37 62° WSW 23:18:41 10° SSE
STARLINK-1138 3.7 23:10:45 10° WSW 23:14:49 55° S 23:18:52 10° E
NOSS 3-4 (A) 3.6 23:10:07 14° SSW 23:15:21 63° SE 23:21:48 10° NE
ERBS 2.4 23:12:04 10° W 23:15:24 76° N 23:18:45 10° E
NOSS 3-4 (C) 3.6 23:10:13 14° SSW 23:15:27 62° SE 23:21:54 10° NE
SL-4 R/B 3.7 23:13:39 15° SSW 23:16:20 24° SSE 23:20:07 10° E
Cosmos 1777 Rocket 4.3 23:12:03 10° NW 23:17:05 49° WSW 23:21:42 12° S
STARLINK-1203 3.7 23:13:06 10° WSW 23:17:14 55° S 23:21:21 10° E
STARLINK-1233 3.8 23:13:16 10° W 23:17:15 46° SSW 23:21:14 10° ESE
ATLAS 3B R/B 3.1 23:11:09 10° NW 23:17:30 45° SW 23:24:02 10° SSE
SL-16 R/B 2.6 23:12:06 10° SSE 23:18:17 85° ENE 23:24:30 10° NNW
STARLINK-1143 3.7 23:15:43 10° WSW 23:19:47 55° S 23:23:51 10° E
CENTAUR R/B 4.0 23:14:11 10° WNW 23:20:55 31° WSW 23:27:41 12° S
Cosmos 1674 3.4 23:18:32 15° SW 23:21:27 43° WNW 23:25:05 10° N
STARLINK-1204 3.9 23:18:15 10° W 23:22:13 45° SSW 23:26:11 10° ESE
Cosmos 1437 3.4 23:20:41 14° SSE 23:23:01 42° E 23:25:55 10° NNE
ATLAS CENTAUR R/B 2.0 23:20:46 15° SSW 23:24:02 42° SE 23:27:54 10° ENE
STARLINK-1241 3.7 23:20:41 10° WSW 23:24:44 55° S 23:28:48 10° ESE
STARLINK-1238 3.9 23:23:12 10° W 23:27:09 43° SSW 23:31:06 10° SE
Meteor 2-1 Rocket 4.3 23:23:19 10° NNW 23:28:52 79° ENE 23:34:24 10° SSE
Cosmos 1602 Rocket 4.5 23:25:02 10° SSE 23:29:07 42° E 23:33:12 10° NNE
Cosmos 1455 3.3 23:25:34 10° N 23:29:10 41° ENE 23:32:44 10° SE
STARLINK-1239 3.7 23:25:38 10° WSW 23:29:42 55° S 23:33:46 10° ESE
STARLINK-1201 4.0 23:28:12 10° W 23:32:08 42° SSW 23:36:03 10° SE
GP-B 4.5 23:28:45 10° NNE 23:32:53 36° E 23:36:59 10° SSE
Cosmos 1745 Rocket 4.2 23:28:05 10° S 23:34:08 70° E 23:40:15 10° NNE
STARLINK-1240 3.7 23:30:37 10° W 23:34:40 55° S 23:38:44 10° ESE
Cosmos-2242 4.2 23:32:41 10° N 23:36:46 41° ENE 23:40:48 10° SE
STARLINK-1206 4.0 23:33:10 10° W 23:37:05 41° SSW 23:40:59 10° SE
STARLINK-1216 3.7 23:35:35 10° W 23:39:38 55° S 23:43:42 10° ESE
Cosmos 2227 Rocket 2.3 23:33:57 10° NW 23:39:41 89° ENE 23:45:23 10° SSE
Cosmos 1892 Rocket 4.0 23:37:41 13° SSW 23:41:29 53° WNW 23:45:49 10° N
STARLINK-1205 4.0 23:38:09 10° W 23:42:02 40° SSW 23:45:55 10° SE
CZ-2D R/B 2.5 23:38:18 10° NNE 23:43:33 58° ESE 23:48:41 10° S
ATLAS 2AS CENTAUR R/B 3.1 23:36:15 10° SW 23:44:19 86° SE 23:52:12 10° NE
STARLINK-1237 3.7 23:40:33 10° W 23:44:37 55° S 23:48:40 10° ESE
Meteor 1-24 Rocket 3.7 23:39:53 12° SSW 23:44:44 73° WNW 23:50:12 10° NNE
Cosmos 1356 Rocket 3.6 23:41:31 10° NNW 23:45:35 57° W 23:49:41 10° S
Cosmos 2369 Rocket 3.3 23:40:40 10° WSW 23:46:00 40° NW 23:51:20 10° NNE
ADEOS II 3.6 23:41:45 10° NNE 23:46:21 30° E 23:50:55 10° SSE
STARLINK-1218 4.1 23:43:07 10° W 23:46:58 38° SSW 23:50:50 10° SE
RESURS DK-1 2.8 23:43:24 13° SSW 23:47:00 52° ESE 23:51:02 10° NE
Helios 1B rocket 3.8 23:45:17 10° N 23:48:56 31° WNW 23:52:34 10° WSW
STARLINK-1202 3.7 23:45:32 10° W 23:49:36 54° S 23:53:39 10° ESE
STARLINK-1254 4.1 23:48:06 10° W 23:51:56 37° SSW 23:55:46 10° SE
Resurs 1-4 Rocket 2.3 23:48:17 10° NNE 23:53:35 69° ESE 23:58:51 10° S
